EW7448 Weather Reports


Display with metric or nautical units.
time (UTC)temp
F
wind
direction
speed
MPH
gust
MPH
rain 1hr
in
rain 24hr
in
rain mn
in
humidity
%
barometer
mb
20260901013049 80 53 0.0 0.0 0.00 0.01 0.01 94 1014.3
20260901011553 81 53 0.0 1.0 0.00 0.01 0.01 93 1014.3
20260901010049 81 53 0.0 1.0 0.00 0.01 0.01 93 1014.2
20260901004550 81 53 0.0 2.0 0.00 0.01 0.01 93 1014.0
20260901003047 81 19 0.0 4.0 0.00 0.01 0.01 93 1014.0
20260901001549 81 34 0.0 3.0 0.00 0.01 0.01 93 1014.0
20260901000047 82 42 0.0 2.0 0.00 0.01 0.01 93 1014.0
20260831234545 82 35 0.0 4.0 0.00 0.01 0.01 93 1013.9
20260831233045 82 41 0.0 4.0 0.00 0.01 0.01 92 1013.8
20260831231544 82 39 0.0 3.0 0.00 0.01 0.01 92 1013.7
20260831230046 82 44 0.0 4.0 0.00 0.01 0.01 91 1013.7
20260831224546 82 37 0.0 8.0 0.00 0.01 0.01 91 1013.7
20260831223043 82 6 0.0 3.0 0.00 0.01 0.01 91 1013.6
20260831221542 82 33 0.0 1.0 0.00 0.01 0.01 92 1013.7
20260831220043 81 5 0.0 1.0 0.00 0.01 0.01 92 1013.8
20260831214603 81 19 0.0 4.0 0.00 0.01 0.01 92 1013.8
20260831213041 81 15 0.0 1.0 0.00 0.01 0.01 92 1013.9
20260831211541 82 335 0.0 1.0 0.00 0.01 0.01 92 1013.9
20260831210040 82 290 0.0 5.0 0.00 0.01 0.01 92 1014.0
20260831204540 84 49 0.0 7.0 0.00 0.01 0.01 91 1014.1
20260831203038 84 54 1.0 4.0 0.00 0.01 0.01 91 1014.1
20260831201540 84 51 1.0 4.0 0.00 0.01 0.01 90 1014.3
20260831200042 84 37 0.0 5.0 0.00 0.01 0.01 90 1014.4
20260831194540 83 28 2.0 7.0 0.00 0.01 0.01 90 1014.4
20260831193037 83 4 1.0 4.0 0.00 0.01 0.01 90 1014.6
20260831191537 83 6 2.0 5.0 0.00 0.01 0.01 88 1014.7
20260831190056 84 40 0.0 4.0 0.00 0.01 0.01 90 1014.7
20260831184541 84 49 0.0 7.0 0.00 0.01 0.01 90 1014.3
20260831183048 84 37 0.0 3.0 0.00 0.01 0.01 89 1014.4
20260831181536 84 44 1.0 3.0 0.00 0.01 0.01 89 1014.8
20260831180035 84 52 0.0 7.0 0.00 0.01 0.01 90 1014.9
20260831174532 85 49 2.0 6.0 0.00 0.01 0.01 87 1014.7
20260831173032 86 43 1.0 5.0 0.00 0.01 0.01 85 1015.2
20260831171534 87 61 0.0 6.0 0.00 0.01 0.01 86 1015.0
20260831170031 88 161 0.0 6.0 0.00 0.01 0.01 84 1014.9
20260831164530 87 351 3.0 7.0 0.00 0.18 0.01 85 1015.0
20260831163038 87 44 1.0 5.0 0.00 0.18 0.01 84 1015.2
20260831161532 88 44 2.0 6.0 0.00 0.18 0.01 81 1015.4
20260831160037 90 19 0.0 5.0 0.00 0.18 0.01 80 1015.6
20260831154529 90 8 1.0 7.0 0.00 0.90 0.01 79 1015.6
20260831153022 89 169 1.0 6.0 0.00 0.90 0.01 80 1015.5
20260831151524 88 124 0.0 6.0 0.00 0.90 0.01 82 1015.6
20260831150025 89 146 0.0 5.0 0.00 0.90 0.01 84 1015.4
20260831144521 88 231 0.0 3.0 0.00 0.90 0.01 86 1015.5
20260831143022 86 4 0.0 2.0 0.00 0.90 0.01 86 1015.5
20260831141509 85 40 0.0 2.0 0.00 0.90 0.01 90 1015.5
20260831140007 84 35 0.0 2.0 0.00 0.90 0.01 92 1015.4
20260831134505 83 15 0.0 3.0 0.00 0.90 0.01 92 1015.4
20260831133100 82 21 0.0 2.0 0.00 0.90 0.01 93 1015.2
20260831131600 81 34 0.0 1.0 0.00 0.90 0.01 94 1015.1
20260831130101 81 32 0.0 2.0 0.00 0.90 0.01 94 1015.0
20260831124555 80 41 0.0 2.0 0.00 0.90 0.01 95 1014.9
20260831123049 79 14 1.0 3.0 0.00 0.90 0.01 96 1014.9
20260831121547 78 188 0.0 1.0 0.00 0.90 0.01 98 1014.8
20260831120053 77 181 0.0 0.0 0.00 0.90 0.01 98 1014.5
20260831114541 76 180 0.0 0.0 0.00 0.90 0.01 98 1014.2
20260831113050 76 180 0.0 0.0 0.00 0.90 0.01 99 1014.2
20260831111541 76 165 0.0 0.0 0.00 0.90 0.01 98 1014.0
20260831110039 75 164 0.0 0.0 0.00 0.90 0.01 98 1013.8
20260831104538 75 165 0.0 0.0 0.00 0.91 0.01 98 1013.7
20260831103047 75 165 0.0 0.0 0.00 0.91 0.01 98 1013.5
20260831101542 75 165 0.0 0.0 0.00 0.91 0.01 98 1013.5
20260831100039 75 165 0.0 0.0 0.00 0.91 0.01 98 1013.4
20260831094546 75 165 0.0 0.0 0.00 0.91 0.01 98 1013.3
20260831093035 75 165 0.0 0.0 0.00 0.91 0.01 98 1013.3
20260831091543 76 165 0.0 0.0 0.00 0.91 0.01 98 1013.4
20260831090038 75 164 0.0 0.0 0.00 0.91 0.01 98 1013.4
20260831084534 76 165 0.0 0.0 0.00 0.91 0.01 98 1013.6
20260831083031 76 165 0.0 0.0 0.00 0.91 0.01 98 1013.7
20260831081531 76 165 0.0 0.0 0.00 0.91 0.01 98 1013.7
20260831080034 76 165 0.0 0.0 0.00 0.91 0.01 98 1013.6
20260831074528 76 165 0.0 0.0 0.00 0.91 0.01 98 1013.5
20260831073027 76 165 0.0 0.0 0.00 0.91 0.01 98 1013.8
20260831071527 76 165 0.0 0.0 0.00 0.91 0.01 98 1014.0
20260831070024 76 165 0.0 0.0 0.00 0.91 0.01 97 1014.0
20260831064522 76 165 0.0 0.0 0.00 0.91 0.01 97 1014.0
20260831063059 76 165 0.0 0.0 0.00 0.91 0.01 97 1014.0
20260831061605 76 165 0.0 0.0 0.01 0.91 0.01 97 1014.0
20260831060056 76 165 0.0 0.0 0.01 0.91 0.01 96 1014.3
20260831054554 76 165 0.0 0.0 0.01 0.91 0.01 97 1014.5
20260831053053 76 165 0.0 0.0 0.01 0.91 0.01 97 1014.8
20260831051600 76 42 0.0 0.0 0.00 0.90 0.00 97 1014.8
20260831050050 76 42 0.0 1.0 0.00 0.90 0.00 97 1014.9
20260831044554 76 42 0.0 0.0 0.00 0.90 0.00 97 1015.0
20260831043049 76 42 0.0 0.0 0.00 0.90 0.00 97 1015.0
20260831041551 76 42 0.0 0.0 0.00 0.90 0.00 96 1015.1
20260831040045 76 42 0.0 0.0 0.00 0.90 0.00 96 1015.1
20260831034548 76 42 0.0 0.0 0.00 0.90 0.90 96 1015.3
20260831033044 77 42 0.0 0.0 0.00 0.90 0.90 95 1015.4
20260831031543 77 42 0.0 0.0 0.00 0.90 0.90 95 1015.3
20260831030043 77 42 0.0 0.0 0.00 0.90 0.90 95 1015.1
20260831024542 77 42 0.0 1.0 0.00 0.90 0.90 95 1015.0
20260831023041 77 42 0.0 0.0 0.00 0.90 0.90 95 1015.0
20260831021541 77 42 0.0 0.0 0.00 0.90 0.90 94 1015.1
20260831020045 77 42 0.0 0.0 0.00 0.90 0.90 94 1015.2
20260831014541 78 42 0.0 0.0 0.00 0.90 0.90 94 1015.3